Oakland, CA

7:56 AM PDT on June 21, 2018 (GMT -0700)
Metro Oakland International

Weather History for KOAK - October, 2017

Change the Weather History Date:

Thursday, October 5, 2017

  Actual Average Record
Temperature  
Mean Temperature 63 °F 62 °F  
Max Temperature 77 °F 72 °F 95 °F (2013)
Min Temperature 48 °F 53 °F 42 °F (2009)
Degree Days  
Heating Degree Days 2 3  
Month to date heating degree days 14 15  
Since 1 July heating degree days 87 215  
Cooling Degree Days 0 1  
Month to date cooling degree days 0 5  
Year to date cooling degree days 290 130  
Growing Degree Days 12 (Base 50)    
Moisture  
Dew Point 47 °F    
Average Humidity 61    
Maximum Humidity 93    
Minimum Humidity 29    
Precipitation  
Precipitation 0.00 in 0.02 in 0.48 in (2011)
Month to date precipitation 0.00 0.08  
Year to date precipitation 20.12 13.58  
Sea Level Pressure  
Sea Level Pressure 30.01 in    
Wind  
Wind Speed 6 mph (NNW)    
Max Wind Speed 15 mph    
Max Gust Speed 19 mph    
Visibility 10 miles    
Events      
T = Trace of Precipitation, MM = Missing Value Source: NWS Daily Summary

Daily Weather History Graph

Daily Weather History Graph

Search for Another Location

Airport or City:

Astronomy

Oct. 05, 2017 Rise Set
Actual Time 7:08 AM PDT 6:45 PM PDT
Civil Twilight 6:42 AM PDT 7:11 PM PDT
Nautical Twilight 6:11 AM PDT 7:41 PM PDT
Astronomical Twilight 5:41 AM PDT 8:12 PM PDT
Moon 7:10 PM PDT (10/5) 6:54 AM PDT (10/5)
Length of Visible Light 12h 29m
Length of Day
11h 37m
Full, 100% of the Moon is Illuminated
Oct 5
Full
Oct 12
Last Quarter
Oct 19
New
Oct 27
First Quarter
Nov 3
Full

Hourly Weather History & Observations

Time (PDT) Temp. Dew Point Humidity Pressure Visibility Wind Dir Wind Speed Gust Speed Precip Events Conditions
12:53 AM 53.1 °F 51.1 °F 93% 30.04 in 10.0 mi Calm Calm - N/A   Clear
1:53 AM 50.0 °F 46.9 °F 89% 30.04 in 10.0 mi ENE 4.6 mph - N/A   Clear
2:53 AM 52.0 °F 46.0 °F 80% 30.04 in 10.0 mi ENE 3.5 mph - N/A   Clear
3:53 AM 52.0 °F 46.9 °F 83% 30.03 in 10.0 mi NE 3.5 mph - N/A   Clear
4:53 AM 50.0 °F 46.9 °F 89% 30.03 in 10.0 mi NE 4.6 mph - N/A   Clear
5:53 AM 50.0 °F 46.9 °F 89% 30.03 in 10.0 mi NNE 3.5 mph - N/A   Clear
6:53 AM 48.0 °F 46.9 °F 96% 30.03 in 10.0 mi NE 3.5 mph - N/A   Clear
7:53 AM 48.9 °F 46.0 °F 90% 30.04 in 9.0 mi NE 4.6 mph - N/A   Clear
8:53 AM 59.0 °F 50.0 °F 72% 30.04 in 10.0 mi Calm Calm - N/A   Clear
9:53 AM 61.0 °F 54.0 °F 78% 30.06 in 10.0 mi SW 3.5 mph - N/A   Clear
10:53 AM 64.0 °F 54.0 °F 70% 30.06 in 10.0 mi West 6.9 mph - N/A   Clear
11:53 AM 66.0 °F 52.0 °F 60% 30.04 in 10.0 mi West 8.1 mph - N/A   Clear
12:53 PM 72.0 °F 37.9 °F 29% 30.02 in 10.0 mi WNW 6.9 mph - N/A   Clear
1:53 PM 73.0 °F 44.1 °F 35% 30.00 in 10.0 mi West 9.2 mph - N/A   Clear
2:53 PM 75.9 °F 42.1 °F 30% 29.98 in 10.0 mi WNW 9.2 mph - N/A   Clear
3:53 PM 73.0 °F 51.1 °F 46% 29.97 in 10.0 mi WNW 11.5 mph - N/A   Clear
4:53 PM 73.0 °F 51.1 °F 46% 29.96 in 10.0 mi WNW 11.5 mph - N/A   Clear
5:53 PM 71.1 °F 43.0 °F 36% 29.96 in 10.0 mi NW 9.2 mph - N/A   Partly Cloudy
6:53 PM 66.9 °F 39.0 °F 36% 29.96 in 10.0 mi NW 10.4 mph - N/A   Partly Cloudy
7:53 PM 63.0 °F 48.9 °F 60% 29.97 in 10.0 mi NW 5.8 mph - N/A   Clear
8:53 PM 61.0 °F 46.9 °F 60% 29.98 in 10.0 mi North 4.6 mph - N/A   Clear
9:53 PM 60.1 °F 48.0 °F 64% 29.99 in 10.0 mi NW 4.6 mph - N/A   Clear
10:53 PM 55.9 °F 48.0 °F 75% 30.00 in 10.0 mi Calm Calm - N/A   Clear
11:53 PM 55.0 °F 48.9 °F 80% 30.00 in 10.0 mi NNE 3.5 mph - N/A   Clear